Terminal Aerodrome Forecast
Issued by NWS

Home | Current Version | Previous Version | Text Only | Print | Product List | Glossary Off
Versions: 1 2 3 4 5 6 7 8 9 10 11 12 13 14 15 16 17 18 19 20 21 22 23

000
FTUS43 KABR 301500 AAE
TAFPIR
TAF AMD
KPIR 301540Z 3016/3112 12006KT P6SM BKN009
     FM301600 13017G25KT P6SM SCT012
     FM310000 15014KT P6SM BKN120
     FM310700 21011KT P6SM SCT250=

USA.gov is the U.S. government's official web portal to all federal, state and local government web resources and services.